When you browse on this site, cookies collect data to enhance your experience and personalize the content and advertising you see.
Visit our Privacy Policy to learn more. By continuing to use the site, you agree to this use of cookies and data.
  • Em Portugal
  • Lista de países
  • Para 7 dias
  • Temperatura da água
  • Mapas de satélite
  • Mapa do tempo
  • Widgets de tempo
  • user-avatar
    Iniciar Sessão

    Previsão horária em Druzhkovka

    Hoje, 19 Fevereiro, Terça-feira

    Tempo Temperatura Precipitação Vento Pressão Humidade
    00:00 -4°C° 0 mm 4 m/s 756 mmHg 76%
    01:00 -5°C° 0 mm 3 m/s 756 mmHg 79%
    02:00 -5°C° 0 mm 3 m/s 756 mmHg 82%
    03:00 -6°C° 0 mm 3 m/s 756 mmHg 81%
    04:00 -6°C° 0 mm 3 m/s 757 mmHg 81%
    05:00 -5°C° 0 mm 2 m/s 757 mmHg 81%
    06:00 -5°C° 0 mm 2 m/s 757 mmHg 81%
    07:00 -5°C° 0 mm 2 m/s 758 mmHg 79%
    08:00 -5°C° 0 mm 2 m/s 758 mmHg 77%
    09:00 -5°C° 0 mm 2 m/s 759 mmHg 75%
    10:00 -4°C° 0 mm 2 m/s 759 mmHg 71%
    11:00 -1°C° 0 mm 1 m/s 759 mmHg 66%
    12:00 0°C° 0 mm 1 m/s 759 mmHg 61%
    13:00 +1°C° 0 mm 1 m/s 759 mmHg 59%
    14:00 0°C° 0 mm 0 m/s 759 mmHg 57%
    15:00 +1°C° 0 mm 0 m/s 759 mmHg 55%
    16:00 0°C° 0 mm 0 m/s 759 mmHg 59%
    17:00 0°C° 0 mm 1 m/s 759 mmHg 62%
    18:00 0°C° 0 mm 1 m/s 758 mmHg 66%
    19:00 -1°C° 0 mm 1 m/s 758 mmHg 68%
    20:00 -3°C° 0 mm 2 m/s 758 mmHg 70%
    21:00 -3°C° 0 mm 2 m/s 758 mmHg 72%
    22:00 -4°C° 0 mm 3 m/s 758 mmHg 72%
    23:00 -4°C° 0 mm 3 m/s 757 mmHg 71%

    Amanhã, 20 Fevereiro, Quarta-feira

    Tempo Temperatura Precipitação Vento Pressão Humidade
    00:00 -4°C° 0 mm 4 m/s 757 mmHg 71%
    01:00 -4°C° 0 mm 4 m/s 757 mmHg 72%
    02:00 -4°C° 0 mm 4 m/s 757 mmHg 73%
    03:00 -4°C° 0 mm 4 m/s 756 mmHg 73%
    04:00 -4°C° 0 mm 4 m/s 756 mmHg 71%
    05:00 -4°C° 0 mm 4 m/s 755 mmHg 69%
    06:00 -4°C° 0 mm 4 m/s 755 mmHg 67%
    07:00 -5°C° 0 mm 5 m/s 754 mmHg 67%
    08:00 -4°C° 0 mm 5 m/s 754 mmHg 66%
    09:00 -4°C° 0 mm 5 m/s 754 mmHg 66%
    10:00 -3°C° 0 mm 6 m/s 753 mmHg 61%
    11:00 -1°C° 0 mm 6 m/s 753 mmHg 57%
    12:00 +1°C° 0 mm 6 m/s 753 mmHg 53%
    13:00 +2°C° 0 mm 6 m/s 752 mmHg 53%
    14:00 +2°C° 0 mm 6 m/s 752 mmHg 54%
    15:00 +3°C° 0 mm 5 m/s 751 mmHg 54%
    16:00 +2°C° 0 mm 5 m/s 751 mmHg 60%
    17:00 +1°C° 0 mm 4 m/s 751 mmHg 65%
    18:00 0°C° 0 mm 4 m/s 750 mmHg 70%
    19:00 0°C° 0 mm 4 m/s 750 mmHg 73%
    20:00 0°C° 0 mm 5 m/s 750 mmHg 76%
    21:00 0°C° 0 mm 5 m/s 750 mmHg 79%
    22:00 0°C° 0 mm 5 m/s 749 mmHg 81%
    23:00 0°C° 0 mm 5 m/s 749 mmHg 83%

    Depois de amanhã, 21 Fevereiro, Quinta-feira

    Tempo Temperatura Precipitação Vento Pressão Humidade
    00:00 0°C° 0 mm 5 m/s 749 mmHg 85%
    01:00 0°C° 0.1 mm 5 m/s 749 mmHg 88%
    02:00 0°C° 0.1 mm 5 m/s 748 mmHg 90%
    03:00 0°C° 0.1 mm 5 m/s 748 mmHg 92%
    04:00 0°C° 0.1 mm 5 m/s 748 mmHg 93%
    05:00 0°C° 0.1 mm 5 m/s 747 mmHg 95%
    06:00 -1°C° 0.1 mm 4 m/s 747 mmHg 96%
    07:00 0°C° 0 mm 5 m/s 747 mmHg 92%
    08:00 0°C° 0 mm 5 m/s 747 mmHg 87%
    09:00 0°C° 0 mm 5 m/s 747 mmHg 83%
    10:00 +1°C° 0.1 mm 6 m/s 747 mmHg 81%
    11:00 0°C° 0.1 mm 7 m/s 746 mmHg 79%
    12:00 +1°C° 0.1 mm 8 m/s 746 mmHg 77%
    13:00 0°C° 0.2 mm 8 m/s 746 mmHg 75%
    14:00 -1°C° 0.2 mm 8 m/s 746 mmHg 74%
    15:00 -1°C° 0.2 mm 8 m/s 746 mmHg 72%
    16:00 -2°C° 0 mm 8 m/s 747 mmHg 71%
    17:00 -3°C° 0 mm 7 m/s 747 mmHg 69%
    18:00 -4°C° 0 mm 7 m/s 747 mmHg 67%
    19:00 -4°C° 0.1 mm 7 m/s 748 mmHg 68%
    20:00 -4°C° 0.1 mm 7 m/s 748 mmHg 69%
    21:00 -6°C° 0.1 mm 7 m/s 748 mmHg 70%
    22:00 -6°C° 0.1 mm 7 m/s 748 mmHg 69%
    23:00 -5°C° 0.1 mm 6 m/s 749 mmHg 69%

    22 Fevereiro, Sexta-feira

    Tempo Temperatura Precipitação Vento Pressão Humidade
    00:00 -5°C° 0.1 mm 6 m/s 749 mmHg 69%
    01:00 -6°C° 0 mm 6 m/s 749 mmHg 69%
    02:00 -6°C° 0 mm 6 m/s 749 mmHg 69%
    03:00 -8°C° 0 mm 6 m/s 749 mmHg 69%
    04:00 -7°C° 0 mm 5 m/s 750 mmHg 71%
    05:00 -7°C° 0 mm 5 m/s 750 mmHg 72%
    06:00 -8°C° 0 mm 5 m/s 750 mmHg 74%
    07:00 -8°C° 0 mm 5 m/s 750 mmHg 73%
    08:00 -8°C° 0 mm 5 m/s 750 mmHg 73%
    09:00 -7°C° 0 mm 5 m/s 750 mmHg 73%
    10:00 -7°C° 0 mm 5 m/s 750 mmHg 71%
    11:00 -6°C° 0 mm 5 m/s 750 mmHg 69%
    12:00 -6°C° 0 mm 5 m/s 750 mmHg 67%
    13:00 -6°C° 0 mm 5 m/s 750 mmHg 66%
    14:00 -6°C° 0 mm 5 m/s 751 mmHg 66%
    15:00 -5°C° 0 mm 4 m/s 751 mmHg 65%
    16:00 -6°C° 0.1 mm 5 m/s 751 mmHg 67%
    17:00 -7°C° 0.1 mm 5 m/s 751 mmHg 69%
    18:00 -8°C° 0.1 mm 6 m/s 752 mmHg 71%
    19:00 -9°C° 0 mm 6 m/s 752 mmHg 68%
    20:00 -11°C° 0 mm 6 m/s 753 mmHg 66%
    21:00 -13°C° 0 mm 7 m/s 753 mmHg 63%
    22:00 -12°C° 0 mm 6 m/s 754 mmHg 62%
    23:00 -12°C° 0 mm 6 m/s 754 mmHg 62%

    23 Fevereiro, Sábado

    Tempo Temperatura Precipitação Vento Pressão Humidade
    00:00 -13°C° 0 mm 5 m/s 754 mmHg 62%
    01:00 -13°C° 0 mm 5 m/s 755 mmHg 64%
    02:00 -13°C° 0 mm 5 m/s 755 mmHg 65%
    03:00 -13°C° 0 mm 5 m/s 755 mmHg 67%
    04:00 -12°C° 0 mm 4 m/s 755 mmHg 69%
    05:00 -14°C° 0 mm 4 m/s 755 mmHg 71%
    06:00 -14°C° 0 mm 4 m/s 755 mmHg 73%
    07:00 -14°C° 0 mm 4 m/s 756 mmHg 72%
    08:00 -14°C° 0 mm 5 m/s 756 mmHg 72%
    09:00 -14°C° 0 mm 5 m/s 757 mmHg 72%
    10:00 -14°C° 0 mm 5 m/s 757 mmHg 68%
    11:00 -13°C° 0 mm 5 m/s 757 mmHg 64%
    12:00 -12°C° 0 mm 5 m/s 757 mmHg 59%
    13:00 -12°C° 0 mm 5 m/s 757 mmHg 59%
    14:00 -12°C° 0 mm 5 m/s 757 mmHg 58%
    15:00 -11°C° 0 mm 5 m/s 757 mmHg 58%
    16:00 -12°C° 0 mm 5 m/s 758 mmHg 61%
    17:00 -12°C° 0 mm 5 m/s 758 mmHg 63%
    18:00 -13°C° 0 mm 5 m/s 758 mmHg 66%
    19:00 -13°C° 0 mm 5 m/s 758 mmHg 68%
    20:00 -14°C° 0 mm 5 m/s 759 mmHg 70%
    21:00 -14°C° 0 mm 5 m/s 759 mmHg 72%
    22:00 -14°C° 0 mm 4 m/s 759 mmHg 73%
    23:00 -14°C° 0 mm 4 m/s 759 mmHg 73%

    24 Fevereiro, Domingo

    Tempo Temperatura Precipitação Vento Pressão Humidade
    00:00 -14°C° 0 mm 4 m/s 759 mmHg 74%
    01:00 -14°C° 0 mm 4 m/s 759 mmHg 76%
    02:00 -14°C° 0 mm 4 m/s 759 mmHg 77%
    03:00 -15°C° 0 mm 4 m/s 759 mmHg 79%
    04:00 -15°C° 0 mm 4 m/s 759 mmHg 80%
    05:00 -15°C° 0 mm 4 m/s 759 mmHg 82%
    06:00 -15°C° 0 mm 5 m/s 759 mmHg 83%
    07:00 -15°C° 0 mm 5 m/s 759 mmHg 82%
    08:00 -14°C° 0 mm 5 m/s 759 mmHg 81%
    09:00 -14°C° 0 mm 5 m/s 760 mmHg 80%
    10:00 -13°C° 0 mm 5 m/s 760 mmHg 76%
    11:00 -13°C° 0 mm 5 m/s 760 mmHg 72%
    12:00 -12°C° 0 mm 5 m/s 760 mmHg 68%
    13:00 -11°C° 0 mm 5 m/s 760 mmHg 69%
    14:00 -11°C° 0 mm 6 m/s 760 mmHg 70%
    15:00 -10°C° 0 mm 6 m/s 759 mmHg 70%
    16:00 -10°C° 0 mm 6 m/s 760 mmHg 73%
    17:00 -10°C° 0 mm 6 m/s 760 mmHg 76%
    18:00 -11°C° 0 mm 6 m/s 760 mmHg 79%
    19:00 -11°C° 0.1 mm 6 m/s 760 mmHg 80%
    20:00 -11°C° 0.1 mm 6 m/s 761 mmHg 81%
    21:00 -11°C° 0.1 mm 6 m/s 761 mmHg 82%
    22:00 -11°C° 0 mm 6 m/s 761 mmHg 82%
    23:00 -11°C° 0 mm 6 m/s 761 mmHg 83%
    Mostrar mais